GFSNW_prec_kuchsnow_174.txt.gz
Snowfall_Accumulation
0.0 0.0 0.0 0.0 0.0 0.0 0.0 0.0 5.4 0.0 0.0 2.0 3.0 3.5 1.1 0.0 0.0 0.0 0.0 0.0 0.0 0.0 0.0 0.0 0.0 0.0 0.0 0.0 0.0 0.0 0.0 0.3 1.2 0.2 0.0 0.0 0.0 0.0 0.0 2.3 0.4 0.8 0.4 2.1
0.0 0.0 0.0 0.0 0.0 0.0 0.0 0.0 0.4 0.0 0.0 4.8 2.7 0.0 0.0 0.0 0.0 0.0 0.0 0.0 0.0 0.0 0.0 0.0 0.0 0.0 0.0 0.0 0.0 0.0 0.0 0.7 1.0 1.4 0.3 0.0 0.4 0.0 0.0 0.2 0.6 2.3 1.0 0.1
0.0 0.0 0.0 0.0 0.0 0.0 0.0 0.0 4.7 0.0 0.0 0.0 0.0 0.0 0.1 0.0 0.0 0.0 0.0 0.0 0.0 0.0 0.0 0.0 0.0 0.0 0.0 0.0 0.0 0.0 0.0 0.6 0.9 1.2 2.0 1.9 2.5 0.2 0.1 1.2 6.0 0.1 0.1 0.0
0.0 0.0 0.0 0.0 0.0 0.0 0.0 0.0 0.7 0.0 3.9 0.4 0.0 0.0 0.0 0.0 0.0 0.0 0.0 0.0 0.0 0.0 0.0 0.0 0.0 0.0 0.0 0.0 0.0 0.0 0.0 2.0 0.3 0.4 0.3 2.6 1.7 0.5 0.4 2.7 0.4 2.1 0.0 0.0
0.0 0.0 0.0 0.0 0.0 0.0 0.0 0.0 0.0 0.0 0.0 0.0 0.0 0.0 0.0 0.0 0.0 0.0 0.0 0.0 0.0 0.0 0.0 0.0 0.0 0.0 0.0 0.0 0.0 0.0 0.0 2.8 2.2 2.7 0.7 1.6 1.9 0.2 0.2 0.2 0.0 0.0 0.0 0.0
0.0 0.0 0.0 0.0 0.0 0.0 0.0 0.0 0.0 0.0 0.0 0.0 0.0 0.0 0.0 0.0 0.0 0.0 0.0 0.0 0.0 0.0 0.0 0.0 0.0 0.0 0.0 0.0 0.0 0.0 0.6 3.1 4.8 4.7 0.2 0.7 1.7 0.2 0.1 0.0 0.0 0.0 0.1 0.0
0.0 0.0 0.0 0.0 0.0 0.0 0.0 0.0 0.0 0.0 0.0 0.0 0.0 0.0 0.0 0.0 0.0 0.0 0.0 0.0 0.0 0.0 0.0 0.0 0.0 0.0 0.0 0.0 0.0 0.0 0.0 2.7 4.5 7.4 2.1 5.1 0.0 0.0 0.0 0.0 0.0 0.0 0.0 0.0
0.0 0.0 0.0 0.0 0.0 0.0 0.0 0.0 0.0 0.0 0.0 0.0 0.0 0.0 0.0 0.0 0.0 0.0 0.0 0.0 0.0 0.0 0.0 0.0 0.0 0.0 0.0 0.0 0.0 0.0 0.0 0.3 2.6 3.8 2.3 0.0 0.0 0.0 0.0 0.0 0.0 0.0 0.0 0.0
0.0 0.0 0.0 0.0 0.0 0.0 0.0 0.0 0.0 0.0 0.0 0.0 0.0 0.0 0.0 0.0 0.0 0.0 0.0 0.0 0.0 0.0 0.0 0.0 0.6 0.0 0.0 0.0 0.0 0.0 0.0 0.0 0.8 0.8 2.2 0.7 0.0 0.0 0.0 0.0 0.0 0.0 0.0 0.0
0.0 0.0 0.0 0.0 0.0 0.0 0.0 0.0 0.0 0.0 0.0 0.0 0.0 0.0 0.0 0.0 0.0 0.0 0.0 0.0 0.0 0.0 0.0 0.1 0.3 0.0 0.0 0.0 0.0 0.1 0.1 0.1 1.1 0.9 1.1 0.0 0.0 0.0 0.0 0.0 0.0 0.0 0.0 0.0
0.0 0.0 0.0 0.0 0.0 0.0 0.0 0.0 0.0 0.0 0.0 0.0 0.0 0.0 0.0 0.0 0.0 0.0 0.0 0.0 0.0 0.0 0.1 0.0 0.1 0.0 0.0 0.0 0.0 0.0 0.0 0.1 0.2 0.3 0.8 0.0 0.0 0.0 0.0 0.0 0.0 0.0 0.0 0.0
0.0 0.0 0.0 0.0 0.0 0.0 0.0 0.0 0.0 0.0 0.0 0.0 0.0 0.0 0.0 0.0 0.0 0.0 0.0 0.0 0.0 0.0 0.2 0.1 0.0 0.0 0.0 0.0 0.0 0.0 0.0 0.0 0.0 0.0 0.0 0.0 0.0 0.0 0.0 0.0 0.0 0.0 0.0 0.0
0.0 0.0 0.0 0.0 0.0 0.0 0.0 0.0 0.0 0.0 0.2 0.0 0.0 0.0 0.0 0.0 0.0 0.0 0.0 0.0 0.0 0.0 0.0 0.1 0.1 0.0 0.0 0.0 0.0 0.0 0.0 0.0 0.0 0.0 0.0 0.0 0.0 0.0 0.0 0.0 0.0 0.0 0.0 0.0
0.0 0.0 0.0 0.0 0.0 0.0 0.0 0.0 0.0 0.0 0.2 1.5 0.0 0.0 0.0 0.0 0.0 0.0 0.0 0.0 0.0 0.0 0.4 0.5 0.2 0.2 0.0 0.0 0.0 0.0 0.0 0.0 0.0 0.0 0.0 0.0 0.0 0.0 0.0 0.0 0.0 0.0 0.0 0.0
0.0 0.0 0.0 0.0 0.0 0.0 0.0 0.0 0.0 0.0 0.3 2.2 0.7 0.0 0.0 0.0 0.0 0.0 0.0 0.0 0.0 0.2 0.7 1.3 0.7 0.0 0.0 0.0 0.0 0.0 0.0 0.0 0.0 0.0 0.0 0.0 0.0 0.0 0.0 0.0 0.0 0.0 0.0 0.0
0.0 0.0 0.0 0.0 0.0 0.0 0.0 0.0 0.0 0.0 0.0 2.6 3.1 0.0 0.0 0.0 0.0 0.0 0.0 0.0 0.0 0.8 0.3 1.6 0.0 0.0 0.0 0.9 0.1 0.0 0.0 0.0 0.0 0.0 0.0 0.0 0.0 0.0 0.0 0.0 0.0 0.0 0.0 0.0
0.0 0.0 0.0 0.0 0.0 0.0 0.1 0.1 0.0 0.0 0.0 2.6 7.8 4.1 0.1 0.0 0.0 0.0 0.0 0.0 0.0 1.2 1.1 0.0 0.8 0.2 1.1 1.0 0.0 0.0 0.0 0.0 0.0 0.0 0.0 0.0 0.0 0.0 0.0 0.0 0.0 0.0 0.0 0.0
0.0 0.0 0.0 0.0 0.0 0.0 0.0 0.0 0.0 0.0 1.5 4.2 11.5 8.8 4.6 0.0 0.0 0.1 0.0 0.0 0.0 1.9 0.7 0.0 0.1 0.0 0.7 1.2 0.0 0.0 0.0 0.0 0.0 0.0 0.0 0.0 0.0 0.0 0.0 0.0 0.0 0.0 0.0 0.0
0.0 0.0 0.0 0.0 0.0 0.0 0.0 0.0 0.0 0.0 0.1 7.3 7.0 10.1 6.4 0.2 0.1 0.1 0.1 0.0 1.6 0.2 1.1 0.0 0.0 0.4 2.0 0.0 0.0 0.1 0.0 0.0 0.0 0.0 0.0 0.0 0.0 0.0 0.0 0.0 0.0 0.0 0.0 0.0
0.0 0.0 0.0 0.2 0.0 0.0 0.0 0.0 1.4 2.7 2.4 3.5 7.8 2.6 2.8 1.1 2.0 0.7 0.8 0.1 1.9 4.9 0.0 0.0 1.6 0.1 0.0 0.0 0.2 0.1 0.0 0.0 0.0 2.9 1.7 0.5 1.1 0.2 0.1 0.0 0.0 0.0 0.0 0.0
0.0 0.4 2.1 0.0 0.0 0.0 0.0 14.8 12.8 5.9 6.5 2.9 2.8 2.2 2.3 0.0 3.2 1.2 0.4 3.6 2.2 7.2 1.9 1.0 1.5 2.6 0.6 0.0 0.2 0.0 0.0 0.1 0.0 0.0 0.1 0.9 1.5 2.0 1.0 0.4 1.5 0.9 1.5 1.8
0.0 0.0 0.0 0.0 6.8 15.4 20.3 19.4 4.9 2.5 1.7 0.9 1.1 0.5 0.2 0.5 0.0 2.1 3.6 5.0 4.6 3.7 1.4 4.8 3.4 1.5 0.9 1.2 0.4 0.2 0.1 0.0 0.1 0.1 1.1 0.5 0.5 0.8 0.8 1.9 2.4 2.2 2.2 1.9
0.0 1.9 14.4 15.6 18.8 29.6 19.7 9.0 3.2 2.0 0.9 1.0 0.8 1.2 0.3 0.9 1.2 4.9 5.7 6.7 3.9 2.2 6.3 3.6 1.3 0.3 0.0 0.3 1.1 1.0 0.7 0.1 0.5 0.9 0.0 0.3 0.3 0.3 0.3 0.2 0.1 0.0 0.0 0.2
3.8 18.0 25.7 16.6 15.4 6.8 4.3 2.7 1.6 1.0 1.3 1.2 1.4 2.3 2.2 1.4 3.2 4.0 6.8 2.6 2.7 8.7 4.6 2.6 0.3 0.4 0.3 0.1 0.2 0.4 0.5 0.7 1.0 2.8 2.8 1.4 0.8 0.3 0.1 0.0 0.1 0.0 0.0 0.0
20.6 17.8 15.4 7.8 2.0 1.3 1.5 0.6 0.6 0.6 0.6 0.9 1.5 1.9 1.8 3.8 6.4 4.4 3.9 6.4 5.1 3.4 3.1 1.1 0.4 0.4 0.6 0.4 0.2 0.2 0.4 0.5 1.2 1.2 2.1 3.2 1.9 0.7 0.0 0.0 0.0 0.3 0.3 0.0
20.2 18.3 7.7 1.1 0.6 0.9 0.3 0.0 0.1 0.0 0.1 0.4 2.5 4.2 5.8 5.0 4.1 5.8 2.2 4.0 3.9 2.6 1.1 0.5 0.3 0.6 0.0 0.2 0.2 0.0 0.0 0.0 0.1 1.0 1.4 2.0 1.9 1.3 0.7 0.5 0.1 0.2 0.9 0.6
25.4 7.9 1.0 0.7 1.0 0.3 0.2 0.0 0.0 0.0 0.3 1.8 2.7 10.3 5.0 4.2 7.8 4.0 1.5 2.5 1.9 0.8 0.0 0.1 0.0 0.1 0.0 0.0 0.0 0.0 0.0 0.0 0.0 0.5 0.9 1.6 2.2 2.4 1.4 1.8 1.5 1.2 0.8 0.7

GFSNW_prec_kuchsnow_180.txt.gz
Snowfall_Accumulation
0.0 0.0 0.0 0.0 0.0 0.0 0.0 0.0 5.4 0.0 0.0 2.0 3.0 3.5 1.1 0.0 0.0 0.0 0.0 0.0 0.0 0.0 0.0 0.0 0.0 0.0 0.0 0.0 0.0 0.0 0.0 0.3 1.2 0.2 0.0 0.0 0.0 0.0 0.0 2.3 0.4 0.8 0.6 2.1
0.0 0.0 0.0 0.0 0.0 0.0 0.0 0.0 0.4 0.0 0.0 4.8 2.7 0.0 0.0 0.0 0.0 0.0 0.0 0.0 0.0 0.0 0.0 0.0 0.0 0.0 0.0 0.0 0.0 0.0 0.0 0.7 1.0 1.4 0.3 0.0 0.4 0.0 0.0 0.2 0.6 2.3 1.0 0.1
0.0 0.0 0.0 0.0 0.0 0.0 0.0 0.0 4.7 0.0 0.0 0.0 0.0 0.0 0.1 0.0 0.0 0.0 0.0 0.0 0.0 0.0 0.0 0.0 0.0 0.0 0.0 0.0 0.0 0.0 0.0 0.6 0.9 1.2 2.0 1.9 2.5 0.2 0.1 1.2 6.0 0.1 0.1 0.0
0.0 0.0 0.0 0.0 0.0 0.0 0.0 0.0 0.7 0.0 3.9 0.4 0.0 0.0 0.0 0.0 0.0 0.0 0.0 0.0 0.0 0.0 0.0 0.0 0.0 0.0 0.0 0.0 0.0 0.0 0.0 2.0 0.3 0.4 0.3 2.6 1.7 0.5 0.4 2.7 0.4 2.1 0.0 0.0
0.0 0.0 0.0 0.0 0.0 0.0 0.0 0.0 0.0 0.0 0.0 0.0 0.0 0.0 0.0 0.0 0.0 0.0 0.0 0.0 0.0 0.0 0.0 0.0 0.0 0.0 0.0 0.0 0.0 0.0 0.0 2.8 2.2 2.7 0.7 1.6 1.9 0.2 0.2 0.2 0.0 0.0 0.0 0.0
0.0 0.0 0.0 0.0 0.0 0.0 0.0 0.0 0.0 0.0 0.0 0.0 0.0 0.0 0.0 0.0 0.0 0.0 0.0 0.0 0.0 0.0 0.0 0.0 0.0 0.0 0.0 0.0 0.0 0.0 0.6 3.1 4.8 4.7 0.2 0.7 1.7 0.2 0.1 0.0 0.0 0.0 0.1 0.0
0.0 0.0 0.0 0.0 0.0 0.0 0.0 0.0 0.0 0.0 0.0 0.0 0.0 0.0 0.0 0.0 0.0 0.0 0.0 0.0 0.0 0.0 0.0 0.0 0.0 0.0 0.0 0.0 0.0 0.0 0.0 2.7 4.5 7.4 2.1 5.1 0.0 0.0 0.0 0.0 0.0 0.0 0.0 0.0
0.0 0.0 0.0 0.0 0.0 0.0 0.0 0.0 0.0 0.0 0.0 0.0 0.0 0.0 0.0 0.0 0.0 0.0 0.0 0.0 0.0 0.0 0.0 0.0 0.0 0.0 0.0 0.0 0.0 0.0 0.0 0.3 2.6 3.8 2.3 0.0 0.0 0.0 0.0 0.0 0.0 0.0 0.0 0.0
0.0 0.0 0.0 0.0 0.0 0.0 0.0 0.0 0.0 0.0 0.0 0.0 0.0 0.0 0.0 0.0 0.0 0.0 0.0 0.0 0.0 0.0 0.0 0.0 0.6 0.0 0.0 0.0 0.0 0.0 0.0 0.0 0.8 0.8 2.2 0.7 0.0 0.0 0.0 0.0 0.0 0.0 0.0 0.0
0.0 0.0 0.0 0.0 0.0 0.0 0.0 0.0 0.0 0.0 0.0 0.0 0.0 0.0 0.0 0.0 0.0 0.0 0.0 0.0 0.0 0.0 0.0 0.1 0.3 0.0 0.0 0.0 0.0 0.1 0.1 0.1 1.1 0.9 1.1 0.0 0.0 0.0 0.0 0.0 0.0 0.0 0.0 0.0
0.0 0.0 0.0 0.0 0.0 0.0 0.0 0.0 0.0 0.0 0.0 0.0 0.0 0.0 0.0 0.0 0.0 0.0 0.0 0.0 0.0 0.0 0.1 0.0 0.1 0.0 0.0 0.0 0.0 0.0 0.0 0.1 0.2 0.3 0.8 0.0 0.0 0.0 0.0 0.0 0.0 0.0 0.0 0.0
0.0 0.0 0.0 0.0 0.0 0.0 0.0 0.0 0.0 0.0 0.0 0.0 0.0 0.0 0.0 0.0 0.0 0.0 0.0 0.0 0.0 0.0 0.2 0.1 0.0 0.0 0.0 0.0 0.0 0.0 0.0 0.0 0.0 0.0 0.0 0.0 0.0 0.0 0.0 0.0 0.0 0.0 0.0 0.0
0.0 0.0 0.0 0.0 0.0 0.0 0.0 0.0 0.0 0.0 0.2 0.0 0.0 0.0 0.0 0.0 0.0 0.0 0.0 0.0 0.0 0.0 0.0 0.1 0.1 0.0 0.0 0.0 0.0 0.0 0.0 0.0 0.0 0.0 0.0 0.0 0.0 0.0 0.0 0.0 0.0 0.0 0.0 0.0
0.0 0.0 0.0 0.0 0.0 0.0 0.0 0.0 0.0 0.0 0.2 1.5 0.0 0.0 0.0 0.0 0.0 0.0 0.0 0.0 0.0 0.0 0.4 0.5 0.2 0.2 0.0 0.0 0.0 0.0 0.0 0.0 0.0 0.0 0.0 0.0 0.0 0.0 0.0 0.0 0.0 0.0 0.0 0.0
0.0 0.0 0.0 0.0 0.0 0.0 0.0 0.0 0.0 0.0 0.3 2.2 0.7 0.0 0.0 0.0 0.0 0.0 0.0 0.0 0.0 0.2 0.7 1.3 0.7 0.0 0.0 0.0 0.0 0.0 0.0 0.0 0.0 0.0 0.0 0.0 0.0 0.0 0.0 0.0 0.0 0.0 0.0 0.0
0.0 0.0 0.0 0.0 0.0 0.0 0.0 0.0 0.0 0.0 0.0 2.6 3.1 0.0 0.0 0.0 0.0 0.0 0.0 0.0 0.0 0.8 0.3 1.6 0.0 0.0 0.0 0.9 0.1 0.0 0.0 0.0 0.0 0.0 0.0 0.0 0.0 0.0 0.0 0.0 0.0 0.0 0.0 0.0
0.0 0.0 0.0 0.0 0.0 0.0 0.1 0.1 0.0 0.0 0.0 2.6 8.0 4.2 0.1 0.0 0.0 0.0 0.0 0.0 0.0 1.2 1.1 0.0 0.8 0.2 1.1 1.0 0.0 0.0 0.0 0.0 0.0 0.0 0.0 0.0 0.0 0.0 0.0 0.0 0.0 0.0 0.0 0.0
0.0 0.0 0.0 0.0 0.0 0.0 0.0 0.0 0.0 0.0 1.5 4.2 11.5 8.8 4.6 0.0 0.0 0.1 0.0 0.0 0.0 1.9 0.7 0.0 0.1 0.0 0.7 1.2 0.0 0.0 0.0 0.0 0.0 0.0 0.0 0.0 0.0 0.0 0.0 0.0 0.0 0.0 0.0 0.0
0.0 0.0 0.0 0.0 0.0 0.0 0.0 0.0 0.0 0.0 0.1 7.3 7.0 10.1 6.4 0.2 0.1 0.1 0.1 0.0 1.6 0.2 1.1 0.0 0.0 0.4 2.0 0.0 0.0 0.1 0.0 0.0 0.0 0.0 0.0 0.0 0.0 0.0 0.0 0.0 0.0 0.0 0.0 0.0
0.0 0.0 0.0 0.9 0.0 0.0 0.0 0.0 1.4 2.7 2.4 3.5 7.8 2.6 2.8 1.1 2.0 0.7 0.8 0.1 1.9 4.9 0.0 0.0 1.6 0.1 0.0 0.0 0.2 0.1 0.0 0.0 0.0 2.9 1.7 0.5 1.1 0.2 0.1 0.0 0.0 0.0 0.0 0.0
0.0 2.0 3.2 0.0 0.0 0.0 0.0 15.7 14.1 6.4 6.6 2.9 2.8 2.2 2.3 0.0 3.2 1.2 0.4 3.6 2.2 7.2 1.9 1.0 1.5 2.6 0.6 0.0 0.2 0.0 0.0 0.1 0.0 0.0 0.1 0.9 1.5 2.0 1.0 0.4 1.5 0.9 1.5 1.8
0.0 0.0 0.0 0.0 7.2 16.7 22.5 20.9 5.4 2.5 1.7 0.9 1.1 0.5 0.2 0.5 0.0 2.1 3.6 5.0 4.6 3.7 1.4 4.9 3.5 1.5 0.9 1.2 0.4 0.2 0.1 0.0 0.1 0.1 1.1 0.5 0.5 0.8 0.8 1.9 2.4 2.2 2.2 1.9
0.0 3.1 16.3 17.3 21.2 32.0 21.6 10.5 3.8 2.3 1.0 1.1 0.8 1.3 0.3 1.1 1.2 4.9 5.7 6.7 3.9 2.2 6.4 3.6 1.3 0.3 0.0 0.3 1.1 1.0 0.7 0.1 0.5 0.9 0.0 0.3 0.3 0.3 0.3 0.2 0.1 0.0 0.0 0.2
4.5 19.6 28.6 18.7 18.0 8.7 5.2 2.8 1.7 1.3 1.4 1.3 1.5 2.5 2.2 1.8 4.0 5.3 7.9 3.8 3.1 9.1 4.9 2.6 0.3 0.4 0.3 0.1 0.2 0.4 0.5 0.7 1.0 2.8 2.8 1.4 0.8 0.3 0.1 0.0 0.1 0.0 0.0 0.0
20.8 17.8 16.9 9.4 3.2 2.1 2.1 1.1 1.2 1.4 1.1 1.4 2.0 2.9 2.5 4.9 8.4 6.2 5.0 7.2 5.3 3.6 3.3 1.3 0.4 0.4 0.6 0.4 0.2 0.2 0.4 0.5 1.2 1.2 2.1 3.2 1.9 0.7 0.0 0.0 0.0 0.3 0.3 0.0
20.2 18.5 8.4 2.1 0.9 1.1 0.3 0.1 0.4 0.3 0.7 1.2 3.6 5.6 7.7 7.3 6.0 7.5 3.5 4.6 4.1 2.8 1.1 0.5 0.3 0.6 0.0 0.2 0.2 0.0 0.0 0.0 0.1 1.0 1.4 2.0 1.9 1.3 0.7 0.5 0.1 0.2 0.9 0.6
25.4 8.1 1.4 1.1 1.0 0.3 0.2 0.0 0.0 0.1 0.6 2.7 3.7 11.3 6.6 5.5 9.0 5.0 2.5 3.1 2.0 0.8 0.0 0.1 0.0 0.1 0.0 0.0 0.0 0.0 0.0 0.0 0.0 0.5 0.9 1.6 2.2 2.4 1.4 1.8 1.5 1.2 0.8 0.7

GFSNW_prec_kuchsnow_183.txt.gz
Snowfall_Accumulation
0.0 0.0 0.0 0.0 0.0 0.0 0.0 0.0 5.4 0.0 0.0 2.0 3.0 3.5 1.1 0.0 0.0 0.0 0.0 0.0 0.0 0.0 0.0 0.0 0.0 0.0 0.0 0.0 0.0 0.0 0.0 0.3 1.2 0.2 0.0 0.0 0.0 0.0 0.0 2.5 0.5 0.8 0.6 2.1
0.0 0.0 0.0 0.0 0.0 0.0 0.0 0.0 0.4 0.0 0.0 4.8 2.7 0.0 0.0 0.0 0.0 0.0 0.0 0.0 0.0 0.0 0.0 0.0 0.0 0.0 0.0 0.0 0.0 0.0 0.0 0.7 1.0 1.4 0.3 0.0 0.4 0.0 0.0 0.2 0.6 2.3 1.0 0.1
0.0 0.0 0.0 0.0 0.0 0.0 0.0 0.0 4.7 0.0 0.0 0.0 0.0 0.0 0.1 0.0 0.0 0.0 0.0 0.0 0.0 0.0 0.0 0.0 0.0 0.0 0.0 0.0 0.0 0.0 0.0 0.6 0.9 1.2 2.0 1.9 2.5 0.2 0.1 1.2 6.1 0.1 0.1 0.0
0.0 0.0 0.0 0.0 0.0 0.0 0.0 0.0 0.7 0.0 3.9 0.4 0.0 0.0 0.0 0.0 0.0 0.0 0.0 0.0 0.0 0.0 0.0 0.0 0.0 0.0 0.0 0.0 0.0 0.0 0.0 2.0 0.3 0.4 0.3 2.6 1.7 0.5 0.4 2.7 0.4 2.1 0.0 0.0
0.0 0.0 0.0 0.0 0.0 0.0 0.0 0.0 0.0 0.0 0.0 0.0 0.0 0.0 0.0 0.0 0.0 0.0 0.0 0.0 0.0 0.0 0.0 0.0 0.0 0.0 0.0 0.0 0.0 0.0 0.0 2.8 2.2 2.7 0.7 1.6 1.9 0.2 0.2 0.2 0.0 0.0 0.0 0.0
0.0 0.0 0.0 0.0 0.0 0.0 0.0 0.0 0.0 0.0 0.0 0.0 0.0 0.0 0.0 0.0 0.0 0.0 0.0 0.0 0.0 0.0 0.0 0.0 0.0 0.0 0.0 0.0 0.0 0.0 0.6 3.1 4.8 4.7 0.2 0.7 1.7 0.2 0.1 0.0 0.0 0.0 0.1 0.0
0.0 0.0 0.0 0.0 0.0 0.0 0.0 0.0 0.0 0.0 0.0 0.0 0.0 0.0 0.0 0.0 0.0 0.0 0.0 0.0 0.0 0.0 0.0 0.0 0.0 0.0 0.0 0.0 0.0 0.0 0.0 2.7 4.5 7.4 2.1 5.1 0.0 0.0 0.0 0.0 0.0 0.0 0.0 0.0
0.0 0.0 0.0 0.0 0.0 0.0 0.0 0.0 0.0 0.0 0.0 0.0 0.0 0.0 0.0 0.0 0.0 0.0 0.0 0.0 0.0 0.0 0.0 0.0 0.0 0.0 0.0 0.0 0.0 0.0 0.0 0.3 2.6 3.8 2.3 0.0 0.0 0.0 0.0 0.0 0.0 0.0 0.0 0.0
0.0 0.0 0.0 0.0 0.0 0.0 0.0 0.0 0.0 0.0 0.0 0.0 0.0 0.0 0.0 0.0 0.0 0.0 0.0 0.0 0.0 0.0 0.0 0.0 0.6 0.0 0.0 0.0 0.0 0.0 0.0 0.0 0.8 0.8 2.2 0.7 0.0 0.0 0.0 0.0 0.0 0.0 0.0 0.0
0.0 0.0 0.0 0.0 0.0 0.0 0.0 0.0 0.0 0.0 0.0 0.0 0.0 0.0 0.0 0.0 0.0 0.0 0.0 0.0 0.0 0.0 0.0 0.1 0.3 0.0 0.0 0.0 0.0 0.1 0.1 0.1 1.1 0.9 1.1 0.0 0.0 0.0 0.0 0.0 0.0 0.0 0.0 0.0
0.0 0.0 0.0 0.0 0.0 0.0 0.0 0.0 0.0 0.0 0.0 0.0 0.0 0.0 0.0 0.0 0.0 0.0 0.0 0.0 0.0 0.0 0.1 0.0 0.1 0.0 0.0 0.0 0.0 0.0 0.0 0.1 0.2 0.3 0.8 0.0 0.0 0.0 0.0 0.0 0.0 0.0 0.0 0.0
0.0 0.0 0.0 0.0 0.0 0.0 0.0 0.0 0.0 0.0 0.0 0.0 0.0 0.0 0.0 0.0 0.0 0.0 0.0 0.0 0.0 0.0 0.2 0.1 0.0 0.0 0.0 0.0 0.0 0.0 0.0 0.0 0.0 0.0 0.0 0.0 0.0 0.0 0.0 0.0 0.0 0.0 0.0 0.0
0.0 0.0 0.0 0.0 0.0 0.0 0.0 0.0 0.0 0.0 0.2 0.0 0.0 0.0 0.0 0.0 0.0 0.0 0.0 0.0 0.0 0.0 0.0 0.1 0.1 0.0 0.0 0.0 0.0 0.0 0.0 0.0 0.0 0.0 0.0 0.0 0.0 0.0 0.0 0.0 0.0 0.0 0.0 0.0
0.0 0.0 0.0 0.0 0.0 0.0 0.0 0.0 0.0 0.0 0.2 1.5 0.0 0.0 0.0 0.0 0.0 0.0 0.0 0.0 0.0 0.0 0.4 0.5 0.2 0.2 0.0 0.0 0.0 0.0 0.0 0.0 0.0 0.0 0.0 0.0 0.0 0.0 0.0 0.0 0.0 0.0 0.0 0.0
0.0 0.0 0.0 0.0 0.0 0.0 0.0 0.0 0.0 0.0 0.3 2.2 0.7 0.0 0.0 0.0 0.0 0.0 0.0 0.0 0.0 0.2 0.7 1.3 0.7 0.0 0.0 0.0 0.0 0.0 0.0 0.0 0.0 0.0 0.0 0.0 0.0 0.0 0.0 0.0 0.0 0.0 0.0 0.0
0.0 0.0 0.0 0.0 0.0 0.0 0.0 0.0 0.0 0.0 0.0 2.6 4.0 0.0 0.0 0.0 0.0 0.0 0.0 0.0 0.0 0.8 0.3 1.6 0.0 0.0 0.0 0.9 0.1 0.0 0.0 0.0 0.0 0.0 0.0 0.0 0.0 0.0 0.0 0.0 0.0 0.0 0.0 0.0
0.0 0.0 0.0 0.0 0.0 0.0 0.1 0.1 0.0 0.0 0.0 2.6 10.8 5.3 0.1 0.0 0.0 0.0 0.0 0.0 0.0 1.2 1.1 0.0 0.8 0.2 1.1 1.0 0.0 0.0 0.0 0.0 0.0 0.0 0.0 0.0 0.0 0.0 0.0 0.0 0.0 0.0 0.0 0.0
0.0 0.0 0.0 0.0 0.0 0.0 0.0 0.0 0.0 0.0 1.5 4.2 15.1 11.7 5.5 0.0 0.0 0.2 0.0 0.0 0.0 1.9 0.7 0.0 0.1 0.0 0.7 1.2 0.0 0.0 0.0 0.0 0.0 0.0 0.0 0.0 0.0 0.0 0.0 0.0 0.0 0.0 0.0 0.0
0.0 0.0 0.0 0.0 0.0 0.0 0.0 0.0 0.0 0.0 0.1 10.8 9.4 12.4 7.3 0.4 0.1 0.3 0.2 0.0 1.6 0.2 1.1 0.0 0.0 0.4 2.0 0.0 0.0 0.1 0.0 0.0 0.0 0.0 0.0 0.0 0.0 0.0 0.0 0.0 0.0 0.0 0.0 0.0
0.0 0.0 0.0 3.4 0.0 0.0 0.0 0.0 1.4 2.7 2.4 3.5 9.3 3.2 3.5 1.1 2.5 0.9 0.9 0.1 1.9 4.9 0.0 0.0 1.6 0.1 0.0 0.0 0.2 0.1 0.0 0.0 0.0 2.9 1.7 0.5 1.1 0.2 0.1 0.0 0.0 0.0 0.0 0.0
0.0 4.4 4.9 0.0 0.0 0.0 0.0 20.8 18.4 10.0 9.5 2.9 3.4 2.2 2.7 0.0 3.4 1.3 0.4 3.6 2.2 7.2 1.9 1.0 1.5 2.6 0.6 0.0 0.2 0.0 0.0 0.1 0.0 0.0 0.1 0.9 1.5 2.0 1.0 0.4 1.5 0.9 1.5 1.8
1.8 0.0 0.0 0.0 8.7 19.8 24.7 22.9 6.7 3.3 2.4 1.2 1.4 0.7 0.3 0.6 0.0 2.2 3.6 5.0 4.6 3.7 1.4 4.9 3.5 1.5 0.9 1.2 0.4 0.2 0.1 0.0 0.1 0.1 1.1 0.5 0.5 0.8 0.8 1.9 2.4 2.2 2.2 1.9
0.7 4.5 18.0 18.7 22.2 33.2 22.4 11.0 4.0 2.4 1.0 1.2 0.8 1.3 0.3 1.1 1.2 4.9 5.7 6.7 3.9 2.2 6.4 3.6 1.3 0.3 0.0 0.3 1.1 1.0 0.7 0.1 0.5 0.9 0.0 0.3 0.3 0.3 0.3 0.2 0.1 0.0 0.0 0.2
5.6 20.9 29.8 19.7 18.9 8.7 5.4 3.0 1.8 1.5 1.5 1.3 1.5 2.5 2.2 1.8 4.0 5.3 7.9 3.8 3.1 9.2 4.9 2.6 0.3 0.4 0.3 0.1 0.2 0.4 0.5 0.7 1.0 2.8 2.8 1.4 0.8 0.3 0.1 0.0 0.1 0.0 0.0 0.0
21.2 18.1 18.0 10.1 3.6 2.4 2.4 1.4 1.4 1.6 1.2 1.4 2.0 2.9 2.5 4.9 8.4 6.2 5.0 7.3 5.3 3.6 3.3 1.3 0.4 0.4 0.6 0.4 0.2 0.2 0.4 0.5 1.2 1.2 2.1 3.2 1.9 0.7 0.0 0.0 0.0 0.3 0.3 0.0
20.2 18.8 9.0 2.8 1.3 1.6 0.5 0.3 0.8 0.7 0.9 1.4 3.6 5.6 7.7 7.3 6.0 7.5 3.5 4.6 4.1 2.9 1.2 0.5 0.3 0.6 0.0 0.2 0.2 0.0 0.0 0.0 0.1 1.0 1.4 2.0 1.9 1.3 0.7 0.5 0.1 0.2 0.9 0.6
25.6 8.9 1.8 1.4 1.4 0.5 0.3 0.1 0.2 0.4 0.9 3.4 3.7 11.6 6.8 5.7 9.0 5.2 2.7 3.3 2.1 0.9 0.0 0.1 0.0 0.1 0.0 0.0 0.0 0.0 0.0 0.0 0.0 0.5 0.9 1.6 2.2 2.4 1.4 1.8 1.5 1.2 0.8 0.7

GFSNW_prec_kuchsnow_186.txt.gz
Snowfall_Accumulation
0.0 0.0 0.0 0.0 0.0 0.0 0.0 0.0 5.4 0.0 0.0 2.0 3.0 3.5 1.1 0.0 0.0 0.0 0.0 0.0 0.0 0.0 0.0 0.0 0.0 0.0 0.0 0.0 0.0 0.0 0.0 0.3 1.2 0.2 0.0 0.0 0.0 0.0 0.0 3.3 1.2 0.8 0.6 2.1
0.0 0.0 0.0 0.0 0.0 0.0 0.0 0.0 0.4 0.0 0.0 4.8 2.7 0.0 0.0 0.0 0.0 0.0 0.0 0.0 0.0 0.0 0.0 0.0 0.0 0.0 0.0 0.0 0.0 0.0 0.0 0.7 1.0 1.4 0.3 0.0 0.4 0.0 0.0 0.2 0.6 2.4 1.0 0.1
0.0 0.0 0.0 0.0 0.0 0.0 0.0 0.0 4.7 0.0 0.0 0.0 0.0 0.0 0.1 0.0 0.0 0.0 0.0 0.0 0.0 0.0 0.0 0.0 0.0 0.0 0.0 0.0 0.0 0.0 0.0 0.6 0.9 1.2 2.0 1.9 2.5 0.2 0.1 1.2 6.2 0.1 0.1 0.0
0.0 0.0 0.0 0.0 0.0 0.0 0.0 0.0 0.7 0.0 3.9 0.4 0.0 0.0 0.0 0.0 0.0 0.0 0.0 0.0 0.0 0.0 0.0 0.0 0.0 0.0 0.0 0.0 0.0 0.0 0.0 2.0 0.3 0.4 0.3 2.6 1.7 0.5 0.4 2.7 0.4 2.1 0.0 0.0
0.0 0.0 0.0 0.0 0.0 0.0 0.0 0.0 0.0 0.0 0.0 0.0 0.0 0.0 0.0 0.0 0.0 0.0 0.0 0.0 0.0 0.0 0.0 0.0 0.0 0.0 0.0 0.0 0.0 0.0 0.0 2.8 2.2 2.7 0.7 1.6 1.9 0.2 0.2 0.2 0.0 0.0 0.0 0.0
0.0 0.0 0.0 0.0 0.0 0.0 0.0 0.0 0.0 0.0 0.0 0.0 0.0 0.0 0.0 0.0 0.0 0.0 0.0 0.0 0.0 0.0 0.0 0.0 0.0 0.0 0.0 0.0 0.0 0.0 0.6 3.1 4.8 4.7 0.2 0.7 1.7 0.2 0.1 0.0 0.0 0.0 0.1 0.0
0.0 0.0 0.0 0.0 0.0 0.0 0.0 0.0 0.0 0.0 0.0 0.0 0.0 0.0 0.0 0.0 0.0 0.0 0.0 0.0 0.0 0.0 0.0 0.0 0.0 0.0 0.0 0.0 0.0 0.0 0.0 2.7 4.5 7.4 2.1 5.1 0.0 0.0 0.0 0.0 0.0 0.0 0.0 0.0
0.0 0.0 0.0 0.0 0.0 0.0 0.0 0.0 0.0 0.0 0.1 0.0 0.0 0.0 0.0 0.0 0.0 0.0 0.0 0.0 0.0 0.0 0.0 0.0 0.0 0.0 0.0 0.0 0.0 0.0 0.0 0.3 2.6 3.8 2.3 0.0 0.0 0.0 0.0 0.0 0.0 0.0 0.0 0.0
0.0 0.0 0.0 0.0 0.0 0.0 0.0 0.0 0.0 0.0 0.0 0.0 0.0 0.0 0.0 0.0 0.0 0.0 0.0 0.0 0.0 0.0 0.0 0.0 0.6 0.0 0.0 0.0 0.0 0.0 0.0 0.0 0.8 0.8 2.2 0.7 0.0 0.0 0.0 0.0 0.0 0.0 0.0 0.0
0.0 0.0 0.0 0.0 0.0 0.0 0.0 0.0 0.0 0.0 0.0 0.0 0.0 0.0 0.0 0.0 0.0 0.0 0.0 0.0 0.0 0.0 0.0 0.1 0.3 0.0 0.0 0.0 0.0 0.1 0.1 0.1 1.1 0.9 1.1 0.0 0.0 0.0 0.0 0.0 0.0 0.0 0.0 0.0
0.0 0.0 0.0 0.0 0.0 0.0 0.0 0.0 0.0 0.0 0.0 0.0 0.0 0.0 0.0 0.0 0.0 0.0 0.0 0.0 0.0 0.0 0.1 0.0 0.1 0.0 0.0 0.0 0.0 0.0 0.0 0.1 0.2 0.3 0.8 0.0 0.0 0.0 0.0 0.0 0.0 0.0 0.0 0.0
0.0 0.0 0.0 0.0 0.0 0.0 0.0 0.0 0.0 0.0 0.0 0.0 0.0 0.0 0.0 0.0 0.0 0.0 0.0 0.0 0.0 0.0 0.2 0.1 0.0 0.0 0.0 0.0 0.0 0.0 0.0 0.0 0.0 0.0 0.0 0.0 0.0 0.0 0.0 0.0 0.0 0.0 0.0 0.0
0.0 0.0 0.0 0.0 0.0 0.0 0.0 0.0 0.0 0.0 0.2 0.0 0.0 0.0 0.0 0.0 0.0 0.0 0.0 0.0 0.0 0.0 0.0 0.1 0.1 0.0 0.0 0.0 0.0 0.0 0.0 0.0 0.0 0.0 0.0 0.0 0.0 0.0 0.0 0.0 0.0 0.0 0.0 0.0
0.0 0.0 0.0 0.0 0.0 0.0 0.0 0.0 0.0 0.0 0.2 2.0 0.1 0.0 0.0 0.0 0.0 0.0 0.0 0.0 0.0 0.0 0.4 0.5 0.2 0.2 0.0 0.0 0.0 0.0 0.0 0.0 0.0 0.0 0.0 0.0 0.0 0.0 0.0 0.0 0.0 0.0 0.0 0.0
0.0 0.0 0.0 0.0 0.0 0.0 0.0 0.0 0.0 0.0 0.3 2.9 0.8 0.0 0.0 0.0 0.0 0.0 0.0 0.0 0.0 0.2 0.7 1.3 0.7 0.0 0.0 0.0 0.0 0.0 0.0 0.0 0.0 0.0 0.0 0.0 0.0 0.0 0.0 0.0 0.0 0.0 0.0 0.0
0.0 0.0 0.0 0.0 0.0 0.0 0.0 0.0 0.0 0.0 0.0 2.6 4.9 0.0 0.0 0.0 0.0 0.0 0.0 0.0 0.0 0.8 0.3 1.6 0.0 0.0 0.0 0.9 0.1 0.0 0.0 0.0 0.0 0.0 0.0 0.0 0.0 0.0 0.0 0.0 0.0 0.0 0.0 0.0
0.0 0.0 0.0 0.0 0.0 0.0 0.1 0.1 0.0 0.0 0.0 2.6 12.2 5.3 0.1 0.0 0.0 0.0 0.0 0.0 0.0 1.2 1.1 0.0 0.8 0.2 1.1 1.0 0.0 0.0 0.0 0.0 0.0 0.0 0.0 0.0 0.0 0.0 0.0 0.0 0.0 0.0 0.0 0.0
0.0 0.0 0.0 0.0 0.0 0.0 0.0 0.0 0.0 0.0 1.5 4.2 16.7 13.2 5.5 0.0 0.1 0.4 0.0 0.0 0.0 1.9 0.7 0.0 0.1 0.0 0.7 1.2 0.0 0.0 0.0 0.0 0.0 0.0 0.0 0.0 0.0 0.0 0.0 0.0 0.0 0.0 0.0 0.0
0.0 0.0 0.0 0.0 0.0 0.0 0.0 0.0 0.0 0.0 0.1 11.9 9.4 12.4 7.3 1.2 0.1 0.6 0.6 0.0 2.2 0.2 1.1 0.0 0.0 0.5 2.0 0.0 0.0 0.1 0.0 0.0 0.0 0.0 0.0 0.0 0.0 0.0 0.0 0.0 0.0 0.0 0.0 0.0
0.0 0.0 0.0 4.2 0.0 0.0 0.0 0.0 1.4 2.7 2.4 3.5 9.3 3.2 5.7 2.2 3.4 2.0 2.4 1.8 3.2 6.3 0.4 0.0 1.8 0.1 0.0 0.0 0.2 0.1 0.0 0.0 0.0 2.9 1.7 0.5 1.1 0.2 0.1 0.0 0.0 0.0 0.0 0.0
1.8 6.9 6.3 0.0 0.0 0.0 0.0 20.8 20.7 12.9 13.7 2.9 3.4 2.6 4.5 1.3 5.3 2.4 1.2 5.4 3.6 8.5 2.7 1.4 1.7 2.6 0.6 0.0 0.2 0.0 0.0 0.1 0.0 0.0 0.1 0.9 1.5 2.0 1.0 0.4 1.5 0.9 1.5 1.8
1.8 1.7 0.8 0.0 9.9 22.0 27.3 25.9 8.7 3.3 2.4 2.5 1.4 0.7 0.8 2.6 1.5 3.7 4.6 6.7 6.0 4.8 1.7 5.1 3.6 1.5 0.9 1.2 0.4 0.2 0.1 0.0 0.1 0.1 1.1 0.5 0.5 0.8 0.8 1.9 2.4 2.2 2.2 1.9
2.3 6.7 20.4 20.8 24.8 36.6 24.6 13.1 6.0 4.1 2.3 2.4 1.5 2.9 2.3 3.4 3.1 6.5 6.6 7.6 4.8 2.5 6.6 3.6 1.3 0.3 0.0 0.3 1.1 1.0 0.7 0.1 0.5 0.9 0.0 0.3 0.3 0.3 0.3 0.2 0.1 0.0 0.0 0.2
7.7 23.1 31.9 21.5 20.2 9.7 6.4 3.0 2.4 2.1 2.5 2.5 2.2 3.3 3.3 2.9 4.7 6.0 8.5 4.3 3.3 9.3 5.0 2.7 0.3 0.4 0.3 0.1 0.2 0.4 0.5 0.7 1.0 2.8 2.8 1.4 0.8 0.3 0.1 0.0 0.1 0.0 0.0 0.0
22.9 19.4 19.5 10.7 4.3 3.0 3.3 2.2 2.2 2.2 1.9 2.4 2.8 3.3 2.6 5.1 8.5 6.3 5.0 7.3 5.3 3.6 3.4 1.4 0.4 0.4 0.6 0.4 0.2 0.2 0.4 0.5 1.2 1.2 2.1 3.2 1.9 0.7 0.0 0.0 0.0 0.3 0.3 0.0
21.0 19.8 10.1 3.3 1.8 2.5 1.1 1.1 1.5 1.1 1.3 1.6 3.6 5.6 7.7 7.3 6.0 7.5 3.5 4.6 4.2 3.1 1.3 0.5 0.3 0.6 0.0 0.2 0.2 0.0 0.0 0.0 0.1 1.0 1.4 2.0 1.9 1.3 0.7 0.5 0.1 0.2 0.9 0.6
26.0 9.9 2.6 2.1 2.0 1.1 0.8 0.5 0.9 0.9 1.4 3.8 3.7 11.6 6.9 5.7 9.0 5.2 2.9 3.6 2.3 1.0 0.0 0.1 0.0 0.1 0.0 0.0 0.0 0.0 0.0 0.0 0.0 0.5 0.9 1.6 2.2 2.4 1.4 1.8 1.5 1.2 0.8 0.7